This is the latest recevied weather packets stored in our database for station/object VE2JJ-13. If no packets are shown the sender has not sent any weather packets the latest 1 day(s).
| Time | Temp. | Humidity | Pressure | Rain* | Wind** | Luminosity | Snow |
|---|---|---|---|---|---|---|---|
| 1778014861 | 22.22° C | 55% | 993 hPa | 0 mm | 11.62 m/s, 22° | - | - |
| 1778014559 | 22.22° C | 55% | 993 hPa | 0 mm | 7.15 m/s, 198° | - | - |
| 1778014261 | 22.22° C | 55% | 992.8 hPa | 0 mm | 14.31 m/s, 221° | - | - |
| 1778013628 | 22.78° C | 55% | 992.9 hPa | 0 mm | 11.18 m/s, 269° | - | - |
| 1778013300 | 22.78° C | 55% | 993 hPa | 0 mm | 11.18 m/s, 191° | - | - |
| 1778012670 | 22.78° C | 55% | 992.8 hPa | 0 mm | 13.86 m/s, 203° | - | - |
| 1778012367 | 22.78° C | 56% | 992.8 hPa | 0 mm | 15.65 m/s, 233° | - | - |
| 1778011439 | 22.22° C | 57% | 992.9 hPa | 0 mm | 12.52 m/s, 193° | - | - |
| 1778011110 | 22.22° C | 57% | 992.9 hPa | 0 mm | 10.73 m/s, 257° | - | - |
| 1778010809 | 22.22° C | 58% | 992.9 hPa | 0 mm | 12.52 m/s, 95° | - | - |
| 1778010214 | 21.67° C | 59% | 992.8 hPa | 0 mm | 10.73 m/s, 225° | - | - |
| 1778009909 | 21.67° C | 59% | 992.7 hPa | 0 mm | 12.96 m/s, 236° | - | - |
| 1778009608 | 21.67° C | 60% | 992.7 hPa | 0 mm | 8.94 m/s, 343° | - | - |
| 1778009307 | 21.67° C | 60% | 992.7 hPa | 0 mm | 9.83 m/s, 174° | - | - |
| 1778009008 | 21.11° C | 60% | 992.7 hPa | 0 mm | 6.71 m/s, 278° | - | - |
| 1778008680 | 21.11° C | 60% | 992.7 hPa | 0 mm | 6.71 m/s, 171° | - | - |
| 1778007748 | 22.78° C | 56% | 992.6 hPa | 0 mm | 8.05 m/s, 86° | - | - |
| 1778007448 | 22.78° C | 55% | 992.6 hPa | 0 mm | 6.71 m/s, 149° | - | - |
| 1778006819 | 22.22° C | 57% | 992.8 hPa | 0 mm | 10.73 m/s, 215° | - | - |
| 1778006489 | 21.67° C | 57% | 992.8 hPa | 0 mm | 8.94 m/s, 230° | - | - |
| 1778006187 | 21.11° C | 57% | 992.9 hPa | 0 mm | 6.26 m/s, 217° | - | - |
| 1778005857 | 21.11° C | 57% | 992.9 hPa | 0 mm | 6.26 m/s, 270° | - | - |
| 1778005559 | 21.11° C | 57% | 992.9 hPa | 0 mm | 7.6 m/s, 239° | - | - |
| 1778005229 | 21.11° C | 57% | 992.9 hPa | 0 mm | 4.47 m/s, 299° | - | - |
| 1778004600 | 21.11° C | 57% | 992.9 hPa | 0 mm | 6.71 m/s, 249° | - | - |
* Rain latest hour (hover to see other rain measurements)
** Current wind speed in m/s (hover to see current wind gust speed)